Camarillo, CA

11:32 AM PDT on April 20, 2018 (GMT -0700)
Camarillo

Weather History for KCMA - December, 2011

Change the Weather History Date:

Tuesday, December 6, 2011

  Actual Average Record
Temperature  
Mean Temperature 53 °F 54 °F  
Max Temperature 66 °F 67 °F 84 °F (1959)
Min Temperature 40 °F 42 °F 34 °F (2013)
Degree Days  
Heating Degree Days 12 11  
Month to date heating degree days 76 63  
Since 1 July heating degree days 288 395  
Cooling Degree Days 0 0  
Month to date cooling degree days 0 0  
Year to date cooling degree days 501 330  
Growing Degree Days 2 (Base 50)    
Moisture  
Dew Point 23 °F    
Average Humidity 41    
Maximum Humidity 70    
Minimum Humidity 11    
Precipitation  
Precipitation 0.00 in 0.04 in 3.40 in (1997)
Month to date precipitation 0.00 0.22  
Year to date precipitation 13.01 13.38  
Since 1 July precipitation 2.78  
Sea Level Pressure  
Sea Level Pressure 30.31 in    
Wind  
Wind Speed 9 mph (ENE)    
Max Wind Speed 23 mph    
Max Gust Speed 35 mph    
Visibility 10 miles    
Events      
T = Trace of Precipitation, MM = Missing Value Source: NWS Daily Summary

Daily Weather History Graph

Daily Weather History Graph

Search for Another Location

Airport or City:

Astronomy

Dec. 06, 2011 Rise Set
Actual Time 6:48 AM PST 4:46 PM PST
Civil Twilight 6:20 AM PST 5:14 PM PST
Nautical Twilight 5:49 AM PST 5:45 PM PST
Astronomical Twilight 5:19 AM PST 6:15 PM PST
Moon 2:11 PM PST (12/6) 3:16 AM PST (12/6)
Length of Visible Light 10h 53m
Length of Day
9h 58m
Waxing Gibbous, 87% of the Moon is Illuminated
Dec 6
Waxing Gibbous
Dec 10
Full
Dec 17
Last Quarter
Dec 24
New
Dec 31
First Quarter

Hourly Weather History & Observations

Time (PST) Temp. Windchill Dew Point Humidity Pressure Visibility Wind Dir Wind Speed Gust Speed Precip Events Conditions
12:55 AM 50.0 °F - 12.0 °F 22% 30.32 in 10.0 mi SE 8.1 mph - N/A   Clear
1:55 AM 46.0 °F - 10.9 °F 24% 30.32 in 10.0 mi Calm Calm - N/A   Clear
2:55 AM 45.0 °F - 15.1 °F 30% 30.33 in 10.0 mi Calm Calm - N/A   Clear
3:55 AM 46.0 °F 43.9 °F 12.0 °F 25% 30.32 in 10.0 mi East 4.6 mph - N/A   Clear
4:55 AM 43.0 °F 37.7 °F 15.1 °F 32% 30.31 in 10.0 mi ENE 9.2 mph - N/A   Clear
5:55 AM 46.9 °F - 12.9 °F 25% 30.32 in 10.0 mi ENE 11.5 mph - N/A   Clear
6:55 AM 52.0 °F - 9.0 °F 18% 30.32 in 10.0 mi ENE 16.1 mph - N/A   Clear
8:55 AM 59.0 °F - 9.0 °F 14% 30.35 in 10.0 mi ENE 17.3 mph 27.6 mph N/A   Clear
9:55 AM 61.0 °F - 9.0 °F 13% 30.36 in 10.0 mi ENE 23.0 mph 31.1 mph N/A   Clear
10:55 AM 64.0 °F - 9.0 °F 12% 30.34 in 10.0 mi ENE 20.7 mph 26.5 mph N/A   Clear
11:55 AM - - - N/A% 30.29 in - North - - N/A   Unknown
12:55 PM - - - N/A% 30.26 in - North - - N/A   Unknown
1:55 PM 64.0 °F - 26.1 °F 24% 30.28 in 10.0 mi West 10.4 mph - N/A   Unknown
2:55 PM 63.0 °F - 30.0 °F 29% 30.28 in 10.0 mi West 10.4 mph - N/A   Clear
3:55 PM 60.1 °F - 35.1 °F 39% 30.28 in 10.0 mi West 9.2 mph - N/A   Clear
4:55 PM 55.9 °F - 39.0 °F 53% 30.29 in 10.0 mi West 6.9 mph - N/A   Clear
5:55 PM 53.1 °F - 39.9 °F 61% 30.30 in 10.0 mi SSE 3.5 mph - N/A   Clear
6:55 PM 50.0 °F - 37.9 °F 63% 30.32 in 10.0 mi SE 3.5 mph - N/A   Clear
7:55 PM 48.0 °F - 37.0 °F 66% 30.33 in 10.0 mi ENE 3.5 mph - N/A   Clear
8:55 PM 45.0 °F - 36.0 °F 71% 30.34 in 10.0 mi Calm Calm - N/A   Clear
9:55 PM 44.1 °F 42.5 °F 35.1 °F 71% 30.33 in 10.0 mi East 3.5 mph - N/A   Clear
10:55 PM 41.0 °F 39.0 °F 30.9 °F 67% 30.32 in 10.0 mi East 3.5 mph - N/A   Clear
11:55 PM 45.0 °F 42.6 °F 19.9 °F 37% 30.27 in - NE 4.6 mph - N/A   Clear